Silver Bay, MN

3:43 AM CDT on June 28, 2017 (GMT -0500)
Silver Bay Municipal

Weather History for KBFW - June, 2014

Change the Weather History Date:

Tuesday, June 3, 2014

  Actual Average Record
Temperature  
Mean Temperature 60 °F -  
Max Temperature 71 °F 62 °F 80 °F (2012)
Min Temperature 46 °F 38 °F 28 °F (1998)
Degree Days  
Heating Degree Days 6    
Growing Degree Days 10 (Base 50)    
Moisture  
Dew Point 52 °F    
Average Humidity 80    
Maximum Humidity 100    
Minimum Humidity 49    
Precipitation  
Precipitation 0.02 in - - ()
Sea Level Pressure  
Sea Level Pressure 29.77 in    
Wind  
Wind Speed 5 mph (West)    
Max Wind Speed 13 mph    
Max Gust Speed 24 mph    
Visibility 10 miles    
Events Rain    
Averages and records for this station are not official NWS values.
T = Trace of Precipitation, MM = Missing Value Source: NWS Daily Summary

Daily Weather History Graph

Daily Weather History Graph

Search for Another Location

Airport or City:

Trip Planner

Search our weather history database for the weather conditions in past years. The results will help you decide how hot, cold, wet, or windy it might be!

Date:

Astronomy

Jun. 03, 2014 Rise Set
Actual Time 5:12 AM CDT 8:55 PM CDT
Civil Twilight 4:33 AM CDT 9:35 PM CDT
Nautical Twilight 3:40 AM CDT 10:28 PM CDT
Astronomical Twilight 2:26 AM CDT 11:43 PM CDT
Moon 10:50 AM CDT (6/3) 12:10 AM CDT (6/3)
Length of Visible Light 17h 01m
Length of Day
15h 43m
Waxing Crescent, 30% of the Moon is Illuminated
Jun 3
Waxing Crescent
Jun 5
First Quarter
Jun 12
Full
Jun 19
Last Quarter
Jun 27
New

Hourly Weather History & Observations

Time (CDT) Temp. Dew Point Humidity Pressure Visibility Wind Dir Wind Speed Gust Speed Precip Events Conditions
12:14 AM 51.8 °F 50.0 °F 94% 29.60 in 5.0 mi WNW 6.9 mph 24.2 mph N/A   Clear
12:34 AM 51.8 °F 50.0 °F 94% 29.60 in 10.0 mi WNW 10.4 mph 17.3 mph N/A   Clear
12:54 AM 50.0 °F 50.0 °F 100% 29.61 in 5.0 mi WNW 3.5 mph - N/A   Clear
1:14 AM 50.0 °F 48.2 °F 94% 29.62 in 10.0 mi WNW 4.6 mph - N/A   Clear
1:34 AM 50.0 °F 50.0 °F 100% 29.63 in 4.0 mi WNW 8.1 mph - N/A Rain Light Rain
1:54 AM 50.0 °F 48.2 °F 94% 29.64 in 10.0 mi WNW 5.8 mph 16.1 mph N/A   Clear
2:14 AM 48.2 °F 48.2 °F 100% 29.65 in 10.0 mi West 5.8 mph - N/A   Drizzle
2:34 AM 48.2 °F 48.2 °F 100% 29.66 in 10.0 mi WNW 4.6 mph - N/A   Drizzle
2:54 AM 48.2 °F 48.2 °F 100% 29.67 in 10.0 mi West 4.6 mph - N/A   Clear
3:14 AM 50.0 °F 48.2 °F 94% 29.68 in 10.0 mi WNW 5.8 mph - N/A   Clear
3:34 AM 50.0 °F 48.2 °F 94% 29.68 in 10.0 mi West 6.9 mph - N/A Rain Light Rain
3:54 AM 50.0 °F 48.2 °F 94% 29.69 in 10.0 mi West 4.6 mph 16.1 mph N/A Rain Light Rain
4:14 AM 50.0 °F 48.2 °F 94% 29.70 in 10.0 mi West 6.9 mph - N/A   Clear
4:34 AM 51.8 °F 50.0 °F 94% 29.71 in 10.0 mi West 4.6 mph - N/A   Clear
4:54 AM 51.8 °F 48.2 °F 88% 29.72 in 10.0 mi West 6.9 mph - N/A   Clear
5:14 AM 51.8 °F 50.0 °F 94% 29.73 in 10.0 mi West 4.6 mph - N/A   Clear
5:34 AM 51.8 °F 50.0 °F 94% 29.74 in 10.0 mi West 5.8 mph - N/A   Clear
5:54 AM 51.8 °F 50.0 °F 94% 29.74 in 10.0 mi WSW 5.8 mph - N/A   Clear
6:13 AM 51.8 °F 51.8 °F 100% 29.76 in 5.0 mi WSW 4.6 mph - N/A   Clear
6:36 AM 51.8 °F 51.8 °F 100% 29.76 in 10.0 mi SW 3.5 mph - N/A   Unknown
6:54 AM 51.8 °F 51.8 °F 100% 29.77 in 7.0 mi WSW 4.6 mph - 0.01 in Rain Rain
7:14 AM 51.8 °F 51.8 °F 100% 29.76 in 7.0 mi SW 4.6 mph - 0.01 in   Light Drizzle
7:34 AM 53.6 °F 53.6 °F 100% 29.77 in 10.0 mi Calm Calm - 0.01 in   Scattered Clouds
7:54 AM 55.4 °F 55.4 °F 100% 29.76 in 10.0 mi WSW 3.5 mph - N/A   Clear
8:14 AM 55.4 °F 53.6 °F 94% 29.76 in 10.0 mi West 5.8 mph - N/A   Clear
8:34 AM 57.2 °F 55.4 °F 94% 29.76 in 10.0 mi West 6.9 mph - N/A   Clear
8:54 AM 59.0 °F 53.6 °F 82% 29.76 in 10.0 mi West 5.8 mph 16.1 mph N/A   Clear
9:14 AM 60.8 °F 55.4 °F 82% 29.77 in 10.0 mi West 4.6 mph - N/A   Scattered Clouds
9:34 AM 59.0 °F 53.6 °F 82% 29.78 in 10.0 mi WNW 6.9 mph 18.4 mph N/A   Scattered Clouds
9:54 AM 60.8 °F 55.4 °F 82% 29.78 in 10.0 mi West 5.8 mph - N/A   Clear
10:14 AM 60.8 °F 53.6 °F 77% 29.78 in 10.0 mi WNW 6.9 mph 23.0 mph N/A   Clear
10:34 AM 62.6 °F 53.6 °F 72% 29.79 in 10.0 mi West 8.1 mph 19.6 mph N/A   Clear
10:54 AM 62.6 °F 53.6 °F 72% 29.80 in 10.0 mi West 11.5 mph 19.6 mph N/A   Clear
11:14 AM 64.4 °F 53.6 °F 68% 29.80 in 10.0 mi WNW 8.1 mph 24.2 mph N/A   Clear
11:34 AM 64.4 °F 53.6 °F 68% 29.80 in 10.0 mi WNW 12.7 mph 21.9 mph N/A   Clear
11:55 AM 66.2 °F 53.6 °F 64% 29.81 in 10.0 mi WSW 8.1 mph 23.0 mph N/A   Clear
12:14 PM 66.2 °F 53.6 °F 64% 29.81 in 10.0 mi West 10.4 mph 20.7 mph N/A   Clear
12:34 PM 66.2 °F 53.6 °F 64% 29.81 in 10.0 mi West 8.1 mph 18.4 mph N/A   Clear
12:54 PM 66.2 °F 53.6 °F 64% 29.81 in 10.0 mi West 10.4 mph 19.6 mph N/A   Clear
1:14 PM 66.2 °F 53.6 °F 64% 29.82 in 10.0 mi West 6.9 mph - N/A   Clear
1:34 PM 66.2 °F 53.6 °F 64% 29.81 in 10.0 mi West 6.9 mph - N/A   Clear
1:54 PM 68.0 °F 55.4 °F 64% 29.81 in 10.0 mi WSW 9.2 mph - N/A   Clear
2:14 PM 66.2 °F 53.6 °F 64% 29.82 in 10.0 mi WNW 6.9 mph - N/A   Clear
2:54 PM 66.2 °F 53.6 °F 64% - 10.0 mi NW 4.6 mph - N/A   Clear
3:14 PM 68.0 °F 53.6 °F 60% 29.82 in 10.0 mi West 9.2 mph - N/A   Clear
3:34 PM 66.2 °F 53.6 °F 64% 29.84 in 10.0 mi Calm Calm - N/A   Clear
3:55 PM 66.2 °F 53.6 °F 64% 29.84 in 10.0 mi West 5.8 mph - N/A   Clear
4:14 PM 68.0 °F 51.8 °F 56% 29.84 in 10.0 mi West 5.8 mph 16.1 mph N/A   Scattered Clouds
4:54 PM 69.8 °F 53.6 °F 56% 29.83 in 10.0 mi SW 3.5 mph - N/A   Scattered Clouds
5:14 PM 69.8 °F 53.6 °F 56% 29.83 in 10.0 mi Calm Calm - N/A   Scattered Clouds
5:34 PM 68.0 °F 51.8 °F 56% 29.83 in 10.0 mi NW 4.6 mph - N/A   Clear
5:54 PM 69.8 °F 53.6 °F 56% 29.82 in 10.0 mi Calm Calm - N/A   Clear
6:14 PM 69.8 °F 51.8 °F 53% 29.82 in 10.0 mi Calm Calm - N/A   Clear
6:34 PM 71.6 °F 51.8 °F 50% 29.82 in 10.0 mi WNW 3.5 mph - N/A   Clear
6:54 PM 69.8 °F 51.8 °F 53% 29.82 in 10.0 mi NW 4.6 mph - N/A   Clear
7:14 PM 69.8 °F 51.8 °F 53% 29.82 in 10.0 mi Calm Calm - N/A   Clear
7:34 PM 69.8 °F 50.0 °F 49% 29.82 in 10.0 mi Calm Calm - N/A   Clear
7:54 PM 66.2 °F 51.8 °F 60% 29.82 in 10.0 mi Calm Calm - N/A   Clear
8:14 PM 62.6 °F 53.6 °F 72% 29.81 in 10.0 mi Calm Calm - N/A   Clear
8:35 PM 60.8 °F 51.8 °F 72% 29.82 in 10.0 mi Calm Calm - N/A   Clear
8:54 PM 59.0 °F 51.8 °F 77% 29.82 in 10.0 mi Calm Calm - N/A   Clear
9:14 PM 55.4 °F 51.8 °F 88% 29.83 in 10.0 mi Calm Calm - N/A   Clear
9:34 PM 53.6 °F 51.8 °F 94% 29.83 in 10.0 mi Calm Calm - N/A   Clear
10:14 PM 51.8 °F 50.0 °F 94% 29.84 in 10.0 mi Calm Calm - N/A   Clear
10:34 PM 50.0 °F 50.0 °F 100% 29.85 in 10.0 mi Calm Calm - N/A   Clear
10:54 PM 48.2 °F 48.2 °F 100% 29.85 in 10.0 mi Calm Calm - N/A   Clear
11:14 PM 48.2 °F 48.2 °F 100% 29.85 in 10.0 mi Calm Calm - N/A   Clear
11:34 PM 46.4 °F 46.4 °F 100% 29.85 in 10.0 mi Calm Calm - N/A   Clear